Location: Brno
(49.2000°N, 16.6330°E)
Time: 07:49:30
(UTC+02:00)

Iridium 2 - Visible Passes

Search period start: 30 March 2015 00:00
Search period end: 09 April 2015 00:00
Orbit: 523 x 539 km, 85.5° (Epoch: 29 March)

Date Brightness Start Highest point End Pass type
(mag) Time Alt. Az. Time Alt. Az. Time Alt. Az.
30 Mar 6.0 22:48:16 23° N 22:48:16 23° N 22:49:49 10° N visible
31 Mar 5.6 22:37:48 27° N 22:37:48 27° N 22:39:40 10° N visible
01 Apr 5.3 22:27:18 32° N 22:27:18 32° N 22:29:30 10° N visible
02 Apr 4.9 22:16:45 39° N 22:16:45 39° N 22:19:18 10° N visible
03 Apr 4.4 22:06:10 48° NNE 22:06:10 48° NNE 22:09:05 10° N visible
03 Apr 6.8 23:41:27 11° WNW 23:41:30 11° WNW 23:42:33 10° NW visible
04 Apr 4.0 21:55:31 58° NE 21:55:31 58° NE 21:58:51 10° N visible
04 Apr 6.7 23:30:48 12° WNW 23:31:13 12° WNW 23:32:44 10° NW visible
05 Apr 3.7 21:44:49 62° E 21:44:49 62° E 21:48:35 10° NNE visible
05 Apr 6.6 23:20:06 13° W 23:20:55 13° WNW 23:22:46 10° NW visible
06 Apr 3.8 21:34:04 52° ESE 21:34:28 55° E 21:38:18 10° NNE visible
06 Apr 6.5 23:09:20 13° W 23:10:36 14° WNW 23:12:43 10° NW visible
07 Apr 3.9 21:23:14 39° SE 21:24:12 50° E 21:27:59 10° NNE visible
07 Apr 6.4 22:58:30 13° W 23:00:16 16° WNW 23:02:38 10° NNW visible
08 Apr 4.1 21:12:20 28° SE 21:13:55 45° E 21:17:40 10° NNE visible
08 Apr 6.4 22:47:36 11° WSW 22:49:55 17° WNW 22:52:30 10° NNW visible
